sat.trackr.live / text

‹ back to catalog

STARLINK-4651

NORAD 53729 · 2022-107AF

PAYLOAD ACTIVE UNKNOWN

§ Identity

Operator
Country
US
Launch date
2022-09-05
Launch site
AFETR
Launch vehicle
Mass (kg)
RCS (m²)

Purposes: comms

External: N2YO · Heavens-Above · Gunter

§ Orbital elements

Epoch: 2026-05-24T21:02:11.506848Z

Period
95.44 min
Inclination
53.2156°
Eccentricity
0.0001375
Mean motion
15.08831580 rev/d
Perigee alt
538.8 km
Apogee alt
540.7 km
Semi-major
6,917.9 km
B*
1.3849e-4
RAAN
272.2110°
Arg perigee
81.1432°
Mean anomaly
278.9716°
Rev number
20,608

§ Raw data

STARLINK-46511 53729U 22107AF  26144.87652207  .00001916  00000+0  13849-3 0  99962 53729  53.2156 272.2110 0001375  81.1432 278.9716 15.08831580206085

JSON: /api/v1/satellites/53729 · /tle

For live sub-satellite position, see the globe view (requires WebGL).

§ Visibility from observer

Set your observer location to see the next 7 days of passes ≥ 10°. The values pass through the URL so the page stays shareable.

No JS? Fill the form by hand. The geolocation button needs JavaScript.